{"data":{"norad_id":41921,"epoch":"2026-05-25T01:29:36.970080Z","epoch_age_seconds":72585,"freshness":"FRESH","line1":"1 41921U 17003E   26145.06223345  .00000227  00000+0  73835-4 0  9991","line2":"2 41921  86.3971  66.5365 0002411  90.0307 270.1165 14.34217990491827","mean_motion":14.3421799,"eccentricity":0.0002411,"inclination_deg":86.3971,"raan_deg":66.5365,"arg_perigee_deg":90.0307,"mean_anomaly_deg":270.1165,"bstar":7.3835e-5,"rev_number":49182,"period_min":100.40314722311,"perigee_km":775.94109186959,"apogee_km":779.39162024788,"semimajor_km":7155.8033560587,"source":"CELESTRAK","updated_at":"2026-05-25T13:38:14.763683Z"}}